Погода в Курске

Россия / Санкт-Петербург и Ленинградская область     59°19′21″N   29°08′30″E
темп.,
°C
ветер,
м/с
пор.,
м/с
влажн.,
%
обл.,
%
осадки,
мм/ч
давл.,
гПа
погр.,
м
26 июля, пн
пн2600:00+14ссз11725 0.0 102010
03:00+13юз017735 0.0 102110
06:00+14ююз117619 0.0 102114
09:00+22з12505 0.0 1021426
12:00+27зсз01370 0.0 10211552
15:00+28ссв213343 0.0 10202521
18:00+28св21339 0.0 10192401
21:00+21всв226012 0.0 102025
27 июля, вт
вт2700:00+17в22670 0.0 102022
03:00+16юв22734 0.0 102128
06:00+17юв23735 0.0 102047
09:00+24юв23485 0.0 1020377
12:00+28юв23314 0.0 10182246
15:00+30юв222975 0.0 10172827
18:00+29ююв233418 0.0 10161739
21:00+22юв226031 0.0 101519
28 июля, ср
ср2800:00+19вюв236794 0.0 101552
03:00+18вюв256854 0.0 101494
06:00+17в277459 0.0 1012145
09:00+24вюв4654100 0.0 1010481
12:00+28юв474298 0.0 10081687
15:00+28юв5640100 0.0 10072517
18:00+23ююв5762100 0.1 1007782
21:00+18ю2696100 0.3 1006345
29 июля, чт
чт2900:00+18ю2599100 0.9 1006179
03:00+18ююз2898100 1.0 1005354
06:00+17юз399892 0.0 1004524
09:00+20юз4886100 0.1 1003767
12:00+22зюз59749 1.2 10031433
15:00+21з611810 4.9 10031190
18:00+20зсз4107281 1.8 1003730
21:00+17з310850 3.0 1004347
30 июля, пт
пт3000:00+16зюз4137712 0.0 1004579
03:00+15юз312935 0.0 1005410
06:00+15юз411915 0.0 1005462
09:00+21зюз57655 0.0 10051069
12:00+24юз57445 0.0 10051834
15:00+26зюз693611 0.0 10042514
18:00+25юз584397 0.0 10032034
21:00+19ю2467100 0.0 100283